Owensboro, KY

7:46 PM CDT on October 22, 2017 (GMT -0500)
Owensboro-Daviess County

Weather History for KOWB - February, 2013

Change the Weather History Date:

Monday, February 4, 2013

  Actual Average Record
Temperature  
Mean Temperature 34 °F -  
Max Temperature 48 °F 43 °F 73 °F (1962)
Min Temperature 21 °F 23 °F 0 °F (1939)
Degree Days  
Heating Degree Days 30    
Moisture  
Dew Point 33 °F    
Average Humidity 85    
Maximum Humidity 100    
Minimum Humidity 58    
Precipitation  
Precipitation 0.06 in - - ()
Sea Level Pressure  
Sea Level Pressure 29.95 in    
Wind  
Wind Speed 9 mph (SSW)    
Max Wind Speed 20 mph    
Max Gust Speed 23 mph    
Visibility 8 miles    
Events Rain    
Averages and records for this station are not official NWS values.
T = Trace of Precipitation, MM = Missing Value Source: NWS Daily Summary

Daily Weather History Graph

Daily Weather History Graph

Search for Another Location

Airport or City:

Trip Planner

Search our weather history database for the weather conditions in past years. The results will help you decide how hot, cold, wet, or windy it might be!

Date:

Astronomy

Feb. 04, 2013 Rise Set
Actual Time 6:49 AM CST 5:16 PM CST
Civil Twilight 6:22 AM CST 5:43 PM CST
Nautical Twilight 5:51 AM CST 6:14 PM CST
Astronomical Twilight 5:20 AM CST 6:45 PM CST
Moon 1:23 AM CST (2/4) 11:41 AM CST (2/4)
Length of Visible Light 11h 21m
Length of Day
10h 26m
Last Quarter, 37% of the Moon is Illuminated
Feb 4
Last Quarter
Feb 10
New
Feb 17
First Quarter
Feb 25
Full
Mar 4
Last Quarter

Hourly Weather History & Observations

Time (CST) Temp. Windchill Dew Point Humidity Pressure Visibility Wind Dir Wind Speed Gust Speed Precip Events Conditions
12:56 AM 22.1 °F 15.9 °F 19.0 °F 88% 30.14 in 10.0 mi South 4.6 mph - N/A   Clear
1:56 AM 21.0 °F 13.4 °F 18.1 °F 89% 30.12 in 10.0 mi ESE 5.8 mph - N/A   Clear
2:56 AM 21.0 °F 10.6 °F 19.0 °F 92% 30.12 in 10.0 mi SSE 9.2 mph - N/A   Clear
4:56 AM 26.1 °F 15.6 °F 23.0 °F 88% 30.06 in 10.0 mi SSE 11.5 mph - N/A   Overcast
5:56 AM 28.0 °F 18.6 °F 25.2 °F 89% 30.04 in 10.0 mi SSE 10.4 mph - N/A   Clear
6:56 AM 31.1 °F 21.4 °F 27.1 °F 85% 30.02 in 10.0 mi SSE 12.7 mph - N/A   Partly Cloudy
7:56 AM 32.0 °F 22.1 °F 28.0 °F 85% 30.01 in 8.0 mi South 13.8 mph - N/A   Mostly Cloudy
8:56 AM 36.0 °F 27.1 °F 30.0 °F 79% 29.97 in 8.0 mi South 13.8 mph - N/A   Mostly Cloudy
9:56 AM 37.9 °F 28.5 °F 31.1 °F 76% 29.95 in 8.0 mi South 17.3 mph 23.0 mph N/A   Mostly Cloudy
10:56 AM 37.9 °F 31.5 °F 30.0 °F 73% 29.96 in 8.0 mi South 9.2 mph - N/A   Mostly Cloudy
11:56 AM 45.0 °F 41.2 °F 32.0 °F 60% 29.92 in 10.0 mi South 6.9 mph - N/A   Mostly Cloudy
12:56 PM 48.9 °F - 34.9 °F 58% 29.90 in 10.0 mi WSW 8.1 mph - N/A   Clear
1:56 PM 48.9 °F - 34.9 °F 58% 29.87 in 10.0 mi WSW 19.6 mph - 0.00 in   Mostly Cloudy
2:56 PM 45.9 °F 40.0 °F 37.9 °F 74% 29.86 in 7.0 mi SW 12.7 mph - 0.00 in Rain Light Rain
3:18 PM 46.4 °F 39.5 °F 41.0 °F 81% 29.86 in 5.0 mi WSW 17.3 mph - 0.00 in Rain Rain
3:56 PM 45.0 °F 38.5 °F 41.9 °F 89% 29.88 in 2.5 mi WSW 13.8 mph - 0.03 in Rain Rain
4:07 PM 44.6 °F 37.2 °F 42.8 °F 93% 29.87 in 3.0 mi WSW 17.3 mph - 0.01 in Rain Light Rain
4:56 PM 43.9 °F 35.7 °F 41.9 °F 93% 29.86 in 5.0 mi SW 19.6 mph - 0.02 in Rain Light Rain
5:56 PM 43.0 °F 36.0 °F 41.9 °F 96% 29.88 in 7.0 mi SW 13.8 mph - 0.01 in   Overcast
7:56 PM 38.8 °F 36.5 °F 37.9 °F 97% 29.91 in 7.0 mi WSW 3.5 mph - 0.00 in   Scattered Clouds
8:56 PM 39.9 °F 36.7 °F 38.8 °F 96% 29.92 in 10.0 mi West 4.6 mph - N/A   Clear
9:56 PM 37.9 °F 35.5 °F 37.9 °F 100% 29.92 in 9.0 mi SSW 3.5 mph - N/A   Overcast
10:56 PM 38.8 °F - 37.9 °F 97% 29.92 in 8.0 mi Calm Calm - N/A   Overcast
11:06 PM 37.4 °F - 37.4 °F 100% 29.91 in 7.0 mi Calm Calm - N/A   Overcast
11:56 PM 39.9 °F 35.8 °F 38.8 °F 96% 29.92 in 10.0 mi West 5.8 mph - N/A   Overcast